| time (UTC) | temp F | wind direction | speed MPH | gust MPH | rain 1hr in | rain 24hr in | rain mn in | humidity % | barometer mb |
| 20260509131030 | 36 | 295 | 7.0 | 13.0 | 0.00 | 0.00 | 0.00 | 53 | 983.0 |
| 20260509130530 | 36 | 296 | 6.0 | 12.0 | 0.00 | 0.00 | 0.00 | 54 | 982.9 |
| 20260509130030 | 36 | 294 | 6.0 | 12.0 | 0.00 | 0.00 | 0.00 | 54 | 982.8 |
| 20260509125531 | 36 | 306 | 8.0 | 14.0 | 0.00 | 0.00 | 0.00 | 54 | 982.8 |
| 20260509125028 | 36 | 269 | 9.0 | 14.0 | 0.00 | 0.00 | 0.00 | 54 | 982.8 |
| 20260509124528 | 36 | 295 | 8.0 | 13.0 | 0.00 | 0.00 | 0.00 | 53 | 982.7 |
| 20260509124027 | 35 | 304 | 8.0 | 13.0 | 0.00 | 0.00 | 0.00 | 53 | 982.6 |
| 20260509123527 | 35 | 292 | 5.0 | 14.0 | 0.00 | 0.00 | 0.00 | 54 | 982.5 |
| 20260509123027 | 35 | 310 | 7.0 | 14.0 | 0.00 | 0.00 | 0.00 | 54 | 982.6 |
| 20260509122526 | 34 | 290 | 7.0 | 12.0 | 0.00 | 0.00 | 0.00 | 54 | 982.4 |
| 20260509122026 | 34 | 302 | 7.0 | 12.0 | 0.00 | 0.00 | 0.00 | 54 | 982.5 |
| 20260509121525 | 34 | 288 | 6.0 | 9.0 | 0.00 | 0.00 | 0.00 | 54 | 982.3 |
| 20260509121024 | 34 | 305 | 5.0 | 10.0 | 0.00 | 0.00 | 0.00 | 55 | 982.2 |
| 20260509120623 | 34 | 272 | 6.0 | 10.0 | 0.00 | 0.00 | 0.00 | 55 | 982.1 |
| 20260509120028 | 33 | 311 | 6.0 | 10.0 | 0.00 | 0.00 | 0.00 | 55 | 981.9 |
| 20260509115521 | 33 | 289 | 5.0 | 10.0 | 0.00 | 0.00 | 0.00 | 56 | 981.9 |
| 20260509115020 | 32 | 304 | 5.0 | 10.0 | 0.00 | 0.00 | 0.00 | 56 | 981.8 |
| 20260509114523 | 32 | 304 | 5.0 | 9.0 | 0.00 | 0.00 | 0.00 | 56 | 981.7 |
| 20260509114019 | 32 | 313 | 6.0 | 9.0 | 0.00 | 0.00 | 0.00 | 56 | 981.6 |
| 20260509113518 | 32 | 306 | 6.0 | 9.0 | 0.00 | 0.00 | 0.00 | 56 | 981.6 |
| 20260509113017 | 31 | 304 | 5.0 | 10.0 | 0.00 | 0.00 | 0.00 | 56 | 981.5 |
| 20260509112517 | 31 | 324 | 5.0 | 10.0 | 0.00 | 0.00 | 0.00 | 56 | 981.3 |
| 20260509112015 | 31 | 309 | 5.0 | 9.0 | 0.00 | 0.00 | 0.00 | 56 | 981.2 |
| 20260509111514 | 31 | 307 | 5.0 | 9.0 | 0.00 | 0.00 | 0.00 | 56 | 981.1 |
| 20260509111014 | 31 | 310 | 5.0 | 9.0 | 0.00 | 0.00 | 0.00 | 56 | 981.2 |
| 20260509110513 | 31 | 299 | 5.0 | 10.0 | 0.00 | 0.00 | 0.00 | 56 | 981.2 |
| 20260509110013 | 31 | 331 | 5.0 | 10.0 | 0.00 | 0.00 | 0.00 | 56 | 981.0 |
| 20260509105512 | 31 | 301 | 5.0 | 10.0 | 0.00 | 0.00 | 0.00 | 56 | 980.9 |
| 20260509105009 | 31 | 309 | 5.0 | 9.0 | 0.00 | 0.00 | 0.00 | 56 | 980.9 |
| 20260509104510 | 31 | 302 | 5.0 | 10.0 | 0.00 | 0.00 | 0.00 | 57 | 980.8 |
| 20260509104008 | 32 | 313 | 5.0 | 10.0 | 0.00 | 0.00 | 0.00 | 57 | 980.7 |
| 20260509103507 | 32 | 311 | 4.0 | 10.0 | 0.00 | 0.00 | 0.00 | 57 | 980.7 |
| 20260509103005 | 32 | 294 | 4.0 | 10.0 | 0.00 | 0.00 | 0.00 | 57 | 980.5 |
| 20260509102505 | 32 | 315 | 5.0 | 8.0 | 0.00 | 0.00 | 0.00 | 57 | 980.5 |
| 20260509102005 | 32 | 319 | 6.0 | 8.0 | 0.00 | 0.00 | 0.00 | 57 | 980.5 |
| 20260509101503 | 32 | 297 | 4.0 | 8.0 | 0.00 | 0.00 | 0.00 | 57 | 980.4 |
| 20260509101002 | 32 | 295 | 4.0 | 10.0 | 0.00 | 0.00 | 0.00 | 56 | 980.4 |
| 20260509100502 | 32 | 292 | 4.0 | 10.0 | 0.00 | 0.00 | 0.00 | 56 | 980.3 |
| 20260509100005 | 32 | 298 | 5.0 | 10.0 | 0.00 | 0.00 | 0.00 | 56 | 980.3 |
| 20260509095503 | 32 | 303 | 6.0 | 10.0 | 0.00 | 0.00 | 0.00 | 56 | 980.2 |
| 20260509095100 | 32 | 284 | 6.0 | 10.0 | 0.00 | 0.00 | 0.00 | 56 | 980.2 |
| 20260509094559 | 33 | 294 | 7.0 | 11.0 | 0.00 | 0.00 | 0.00 | 56 | 980.2 |
| 20260509094058 | 33 | 296 | 5.0 | 11.0 | 0.00 | 0.00 | 0.00 | 55 | 980.1 |
| 20260509093558 | 33 | 316 | 6.0 | 11.0 | 0.00 | 0.00 | 0.00 | 55 | 980.2 |
| 20260509093057 | 33 | 296 | 5.0 | 9.0 | 0.00 | 0.00 | 0.00 | 55 | 980.0 |
| 20260509092559 | 33 | 315 | 5.0 | 9.0 | 0.00 | 0.00 | 0.00 | 54 | 979.9 |
| 20260509092058 | 33 | 286 | 4.0 | 9.0 | 0.00 | 0.00 | 0.00 | 54 | 979.8 |
| 20260509091554 | 33 | 275 | 4.0 | 8.0 | 0.00 | 0.00 | 0.00 | 54 | 979.9 |
| 20260509091056 | 33 | 277 | 3.0 | 8.0 | 0.00 | 0.00 | 0.00 | 54 | 979.7 |
| 20260509090553 | 33 | 301 | 4.0 | 7.0 | 0.00 | 0.00 | 0.00 | 54 | 979.6 |
| 20260509090056 | 33 | 313 | 4.0 | 8.0 | 0.00 | 0.00 | 0.00 | 54 | 979.5 |
| 20260509085552 | 33 | 303 | 5.0 | 8.0 | 0.00 | 0.00 | 0.00 | 54 | 979.4 |
| 20260509085053 | 33 | 300 | 4.0 | 7.0 | 0.00 | 0.00 | 0.00 | 55 | 979.4 |
| 20260509084551 | 32 | 306 | 3.0 | 6.0 | 0.00 | 0.00 | 0.00 | 55 | 979.2 |
| 20260509084050 | 32 | 296 | 2.0 | 5.0 | 0.00 | 0.00 | 0.00 | 55 | 979.2 |
| 20260509083552 | 32 | 292 | 2.0 | 5.0 | 0.00 | 0.00 | 0.00 | 56 | 979.1 |
| 20260509083057 | 32 | 301 | 2.0 | 4.0 | 0.00 | 0.00 | 0.00 | 56 | 979.0 |
| 20260509082548 | 32 | 288 | 2.0 | 4.0 | 0.00 | 0.00 | 0.00 | 56 | 978.9 |
| 20260509082048 | 32 | 288 | 2.0 | 4.0 | 0.00 | 0.00 | 0.00 | 56 | 979.0 |
| 20260509081547 | 32 | 298 | 2.0 | 5.0 | 0.00 | 0.00 | 0.00 | 56 | 978.9 |
| 20260509081047 | 32 | 298 | 2.0 | 5.0 | 0.00 | 0.00 | 0.00 | 56 | 978.9 |
| 20260509080545 | 32 | 297 | 2.0 | 4.0 | 0.00 | 0.00 | 0.00 | 56 | 978.8 |
| 20260509080046 | 32 | 296 | 2.0 | 4.0 | 0.00 | 0.00 | 0.00 | 56 | 978.8 |
| 20260509075545 | 32 | 288 | 2.0 | 7.0 | 0.00 | 0.00 | 0.00 | 56 | 978.7 |
| 20260509075044 | 32 | 291 | 3.0 | 8.0 | 0.00 | 0.00 | 0.00 | 56 | 978.7 |
| 20260509074547 | 32 | 282 | 3.0 | 8.0 | 0.00 | 0.00 | 0.00 | 56 | 978.7 |
| 20260509074043 | 33 | 284 | 3.0 | 8.0 | 0.00 | 0.00 | 0.00 | 56 | 978.7 |
| 20260509073542 | 33 | 279 | 3.0 | 8.0 | 0.00 | 0.00 | 0.00 | 56 | 978.7 |
| 20260509073043 | 33 | 295 | 4.0 | 8.0 | 0.00 | 0.00 | 0.00 | 56 | 978.7 |
| 20260509072544 | 33 | 277 | 3.0 | 4.0 | 0.00 | 0.00 | 0.00 | 56 | 978.6 |
| 20260509072042 | 33 | 275 | 3.0 | 4.0 | 0.00 | 0.00 | 0.00 | 56 | 978.5 |
| 20260509071541 | 33 | 287 | 2.0 | 4.0 | 0.00 | 0.00 | 0.00 | 56 | 978.5 |
| 20260509071038 | 34 | 290 | 2.0 | 5.0 | 0.00 | 0.00 | 0.00 | 56 | 978.4 |
| 20260509070538 | 34 | 306 | 2.0 | 5.0 | 0.00 | 0.00 | 0.00 | 56 | 978.4 |
| 20260509070041 | 34 | 296 | 3.0 | 5.0 | 0.00 | 0.00 | 0.00 | 56 | 978.4 |
| 20260509065539 | 34 | 303 | 1.0 | 3.0 | 0.00 | 0.00 | 0.00 | 56 | 978.4 |
| 20260509065037 | 34 | 295 | 1.0 | 3.0 | 0.00 | 0.00 | 0.00 | 56 | 978.4 |
| 20260509064538 | 34 | 295 | 2.0 | 4.0 | 0.00 | 0.00 | 0.00 | 56 | 978.3 |
| 20260509064037 | 34 | 296 | 2.0 | 4.0 | 0.00 | 0.00 | 0.00 | 56 | 978.3 |
| 20260509063535 | 34 | 323 | 1.0 | 3.0 | 0.00 | 0.00 | 0.00 | 55 | 978.2 |
| 20260509063033 | 34 | 323 | 1.0 | 3.0 | 0.00 | 0.00 | 0.00 | 54 | 978.1 |
| 20260509062531 | 35 | 323 | 2.0 | 3.0 | 0.00 | 0.00 | 0.00 | 54 | 978.1 |
| 20260509062030 | 35 | 323 | 1.0 | 4.0 | 0.00 | 0.00 | 0.00 | 54 | 978.1 |
| 20260509061528 | 35 | 313 | 2.0 | 4.0 | 0.00 | 0.00 | 0.00 | 53 | 978.1 |
| 20260509061031 | 36 | 327 | 1.0 | 5.0 | 0.00 | 0.00 | 0.00 | 53 | 978.0 |
| 20260509060526 | 36 | 325 | 2.0 | 6.0 | 0.00 | 0.00 | 0.00 | 53 | 977.9 |
| 20260509060033 | 37 | 309 | 2.0 | 5.0 | 0.00 | 0.00 | 0.00 | 52 | 977.9 |
| 20260509055529 | 37 | 16 | 1.0 | 3.0 | 0.00 | 0.00 | 0.00 | 51 | 977.8 |
| 20260509055027 | 37 | 16 | 1.0 | 3.0 | 0.00 | 0.00 | 0.00 | 50 | 977.7 |
| 20260509054521 | 38 | 16 | 0.0 | 4.0 | 0.00 | 0.00 | 0.00 | 49 | 977.5 |
| 20260509054020 | 38 | 16 | 0.0 | 4.0 | 0.00 | 0.00 | 0.00 | 49 | 977.7 |
| 20260509053519 | 38 | 33 | 0.0 | 0.0 | 0.00 | 0.00 | 0.00 | 49 | 977.5 |
| 20260509053018 | 39 | 33 | 0.0 | 2.0 | 0.00 | 0.00 | 0.00 | 49 | 977.4 |
| 20260509052516 | 39 | 33 | 0.0 | 2.0 | 0.00 | 0.00 | 0.00 | 48 | 977.4 |
| 20260509052014 | 40 | 33 | 0.0 | 1.0 | 0.00 | 0.00 | 0.00 | 47 | 977.3 |
| 20260509051513 | 41 | 33 | 0.0 | 2.0 | 0.00 | 0.00 | 0.00 | 46 | 977.3 |
| 20260509051012 | 41 | 33 | 0.0 | 2.0 | 0.00 | 0.00 | 0.00 | 45 | 977.3 |
| 20260509050511 | 42 | 33 | 1.0 | 2.0 | 0.00 | 0.00 | 0.00 | 44 | 977.3 |
| 20260509050026 | 42 | 33 | 0.0 | 2.0 | 0.00 | 0.00 | 0.00 | 43 | 977.2 |
| 20260509045509 | 43 | 33 | 0.0 | 4.0 | 0.00 | 0.00 | 0.00 | 43 | 977.1 |
| 20260509045008 | 43 | 34 | 1.0 | 4.0 | 0.00 | 0.00 | 0.00 | 43 | 977.2 |
| 20260509044509 | 43 | 34 | 1.0 | 6.0 | 0.00 | 0.00 | 0.00 | 42 | 977.2 |
| 20260509044007 | 43 | 45 | 3.0 | 6.0 | 0.00 | 0.00 | 0.00 | 43 | 977.1 |
| 20260509043507 | 43 | 18 | 2.0 | 6.0 | 0.00 | 0.00 | 0.00 | 42 | 977.1 |
| 20260509043009 | 43 | 26 | 3.0 | 6.0 | 0.00 | 0.00 | 0.00 | 42 | 977.1 |
| 20260509042508 | 43 | 34 | 2.0 | 5.0 | 0.00 | 0.00 | 0.00 | 43 | 977.0 |
| 20260509042011 | 43 | 11 | 1.0 | 6.0 | 0.00 | 0.00 | 0.00 | 43 | 977.0 |
| 20260509041508 | 43 | 48 | 2.0 | 10.0 | 0.00 | 0.00 | 0.00 | 42 | 976.9 |
| 20260509041008 | 43 | 63 | 3.0 | 10.0 | 0.00 | 0.00 | 0.00 | 42 | 977.0 |
| 20260509040507 | 43 | 310 | 7.0 | 11.0 | 0.00 | 0.00 | 0.00 | 42 | 976.7 |
| 20260509040007 | 43 | 323 | 7.0 | 13.0 | 0.00 | 0.00 | 0.00 | 41 | 976.6 |
| 20260509035510 | 44 | 311 | 7.0 | 13.0 | 0.00 | 0.00 | 0.00 | 41 | 976.5 |
| 20260509035007 | 44 | 341 | 6.0 | 13.0 | 0.00 | 0.00 | 0.00 | 40 | 976.4 |
| 20260509034506 | 44 | 338 | 8.0 | 13.0 | 0.00 | 0.00 | 0.00 | 39 | 976.3 |
| 20260509034006 | 44 | 333 | 7.0 | 12.0 | 0.00 | 0.00 | 0.00 | 38 | 976.3 |
| 20260509033506 | 44 | 308 | 7.0 | 12.0 | 0.00 | 0.00 | 0.00 | 38 | 976.2 |
| 20260509033006 | 44 | 332 | 6.0 | 12.0 | 0.00 | 0.00 | 0.00 | 37 | 976.2 |
| 20260509032508 | 44 | 299 | 7.0 | 12.0 | 0.00 | 0.00 | 0.00 | 36 | 976.0 |
| 20260509032008 | 44 | 309 | 7.0 | 11.0 | 0.00 | 0.00 | 0.00 | 36 | 976.2 |
| 20260509031510 | 45 | 307 | 6.0 | 11.0 | 0.00 | 0.00 | 0.00 | 35 | 976.1 |
| 20260509031006 | 45 | 309 | 6.0 | 11.0 | 0.00 | 0.00 | 0.00 | 34 | 976.0 |
| 20260509030506 | 45 | 347 | 5.0 | 10.0 | 0.00 | 0.00 | 0.00 | 34 | 976.0 |
| 20260509030006 | 46 | 326 | 6.0 | 10.0 | 0.00 | 0.00 | 0.00 | 33 | 975.9 |
| 20260509025505 | 46 | 304 | 5.0 | 12.0 | 0.00 | 0.00 | 0.00 | 34 | 975.8 |
| 20260509025004 | 46 | 340 | 6.0 | 14.0 | 0.00 | 0.00 | 0.00 | 33 | 975.8 |
| 20260509024504 | 46 | 302 | 7.0 | 14.0 | 0.00 | 0.00 | 0.00 | 32 | 975.7 |
| 20260509024009 | 46 | 306 | 7.0 | 12.0 | 0.00 | 0.00 | 0.00 | 32 | 975.7 |
| 20260509023506 | 46 | 302 | 7.0 | 12.0 | 0.00 | 0.00 | 0.00 | 31 | 975.6 |
| 20260509023007 | 46 | 295 | 7.0 | 13.0 | 0.00 | 0.00 | 0.00 | 31 | 975.5 |
| 20260509022508 | 47 | 340 | 8.0 | 13.0 | 0.00 | 0.00 | 0.00 | 30 | 975.4 |
| 20260509022004 | 47 | 315 | 8.0 | 13.0 | 0.00 | 0.00 | 0.00 | 30 | 975.3 |
| 20260509021504 | 47 | 296 | 9.0 | 16.0 | 0.00 | 0.00 | 0.00 | 29 | 975.2 |
| 20260509021003 | 47 | 314 | 9.0 | 16.0 | 0.00 | 0.00 | 0.00 | 29 | 975.2 |
| 20260509020503 | 47 | 350 | 8.0 | 13.0 | 0.00 | 0.00 | 0.00 | 28 | 975.2 |
| 20260509020004 | 48 | 343 | 6.0 | 13.0 | 0.00 | 0.00 | 0.00 | 28 | 975.2 |
| 20260509015504 | 48 | 322 | 6.0 | 13.0 | 0.00 | 0.00 | 0.00 | 28 | 975.1 |
| 20260509015003 | 48 | 327 | 8.0 | 15.0 | 0.00 | 0.00 | 0.00 | 28 | 975.0 |
| 20260509014502 | 48 | 341 | 7.0 | 17.0 | 0.00 | 0.00 | 0.00 | 26 | 975.0 |
| 20260509014002 | 48 | 321 | 10.0 | 19.0 | 0.00 | 0.00 | 0.00 | 25 | 975.0 |
| 20260509013503 | 48 | 338 | 9.0 | 19.0 | 0.00 | 0.00 | 0.00 | 25 | 975.1 |
| 20260509013003 | 48 | 335 | 9.0 | 17.0 | 0.00 | 0.00 | 0.00 | 25 | 975.1 |
| 20260509012502 | 48 | 331 | 9.0 | 17.0 | 0.00 | 0.00 | 0.00 | 25 | 975.1 |
| 20260509012002 | 49 | 360 | 7.0 | 16.0 | 0.00 | 0.00 | 0.00 | 25 | 975.1 |
| 20260509011503 | 49 | 346 | 11.0 | 16.0 | 0.00 | 0.00 | 0.00 | 24 | 975.1 |
| 20260509011002 | 49 | 346 | 8.0 | 15.0 | 0.00 | 0.00 | 0.00 | 25 | 975.1 |
| 20260509010502 | 50 | 23 | 11.0 | 17.0 | 0.00 | 0.00 | 0.00 | 23 | 975.0 |
| 20260509010007 | 50 | 5 | 8.0 | 19.0 | 0.00 | 0.00 | 0.00 | 25 | 975.1 |
| 20260509005502 | 50 | 309 | 10.0 | 19.0 | 0.00 | 0.00 | 0.00 | 24 | 975.0 |
| 20260509005001 | 51 | 344 | 12.0 | 19.0 | 0.00 | 0.00 | 0.00 | 24 | 975.0 |
| 20260509004602 | 50 | 335 | 11.0 | 19.0 | 0.00 | 0.00 | 0.00 | 26 | 974.9 |
| 20260509004100 | 50 | 355 | 11.0 | 21.0 | 0.00 | 0.00 | 0.00 | 27 | 974.8 |
| 20260509003600 | 50 | 345 | 14.0 | 21.0 | 0.00 | 0.00 | 0.00 | 26 | 974.7 |
| 20260509003100 | 51 | 344 | 13.0 | 20.0 | 0.00 | 0.00 | 0.00 | 27 | 974.6 |
| 20260509002602 | 51 | 325 | 11.0 | 19.0 | 0.00 | 0.00 | 0.00 | 27 | 974.6 |
| 20260509002100 | 51 | 348 | 8.0 | 18.0 | 0.00 | 0.00 | 0.00 | 27 | 974.5 |
| 20260509001600 | 51 | 340 | 12.0 | 18.0 | 0.00 | 0.00 | 0.00 | 26 | 974.5 |
| 20260509001059 | 51 | 355 | 10.0 | 17.0 | 0.00 | 0.00 | 0.00 | 26 | 974.4 |
| 20260509000559 | 52 | 338 | 9.0 | 15.0 | 0.00 | 0.00 | 0.00 | 26 | 974.4 |
| 20260509000109 | 52 | 315 | 10.0 | 16.0 | 0.00 | 0.00 | 0.00 | 26 | 974.4 |
| 20260508235559 | 52 | 349 | 10.0 | 20.0 | 0.00 | 0.00 | 0.00 | 25 | 974.4 |
| 20260508235103 | 52 | 329 | 11.0 | 20.0 | 0.00 | 0.00 | 0.00 | 26 | 974.2 |
| 20260508234609 | 52 | 304 | 7.0 | 16.0 | 0.00 | 0.00 | 0.00 | 26 | 974.1 |
| 20260508234100 | 52 | 5 | 7.0 | 17.0 | 0.00 | 0.00 | 0.00 | 25 | 974.0 |
| 20260508233559 | 52 | 344 | 11.0 | 17.0 | 0.00 | 0.00 | 0.00 | 24 | 974.3 |
| 20260508233101 | 53 | 334 | 11.0 | 18.0 | 0.00 | 0.00 | 0.00 | 24 | 974.3 |
| 20260508232558 | 53 | 305 | 9.0 | 17.0 | 0.00 | 0.00 | 0.00 | 23 | 974.4 |
| 20260508232058 | 53 | 355 | 9.0 | 17.0 | 0.00 | 0.00 | 0.00 | 24 | 974.2 |
| 20260508231558 | 53 | 319 | 6.0 | 17.0 | 0.00 | 0.00 | 0.00 | 24 | 974.3 |
| 20260508231058 | 54 | 336 | 9.0 | 17.0 | 0.00 | 0.00 | 0.00 | 24 | 974.2 |
| 20260508230559 | 54 | 360 | 5.0 | 16.0 | 0.00 | 0.00 | 0.00 | 23 | 974.1 |
| 20260508230104 | 54 | 51 | 9.0 | 16.0 | 0.00 | 0.00 | 0.00 | 22 | 974.1 |
| 20260508225558 | 55 | 355 | 8.0 | 15.0 | 0.00 | 0.00 | 0.00 | 22 | 974.1 |
| 20260508225057 | 55 | 13 | 5.0 | 13.0 | 0.00 | 0.00 | 0.00 | 21 | 974.1 |
| 20260508224558 | 55 | 19 | 7.0 | 14.0 | 0.00 | 0.00 | 0.00 | 21 | 974.3 |
| 20260508224058 | 55 | 28 | 4.0 | 14.0 | 0.00 | 0.00 | 0.00 | 24 | 974.3 |
| 20260508223557 | 55 | 324 | 7.0 | 16.0 | 0.00 | 0.00 | 0.00 | 24 | 974.4 |
| 20260508223057 | 55 | 335 | 10.0 | 16.0 | 0.00 | 0.00 | 0.00 | 24 | 974.4 |
| 20260508222557 | 55 | 350 | 8.0 | 15.0 | 0.00 | 0.00 | 0.00 | 24 | 974.4 |
| 20260508222057 | 55 | 43 | 7.0 | 15.0 | 0.00 | 0.00 | 0.00 | 23 | 974.3 |
| 20260508221600 | 55 | 11 | 4.0 | 15.0 | 0.00 | 0.00 | 0.00 | 26 | 974.3 |
| 20260508221056 | 55 | 338 | 5.0 | 16.0 | 0.00 | 0.00 | 0.00 | 26 | 974.5 |
| 20260508220559 | 55 | 5 | 7.0 | 17.0 | 0.00 | 0.00 | 0.00 | 24 | 974.4 |
| 20260508220057 | 56 | 347 | 9.0 | 17.0 | 0.00 | 0.00 | 0.00 | 24 | 974.4 |
| 20260508215556 | 56 | 305 | 9.0 | 14.0 | 0.00 | 0.00 | 0.00 | 24 | 974.4 |
| 20260508215056 | 55 | 355 | 7.0 | 17.0 | 0.00 | 0.00 | 0.00 | 25 | 974.4 |
| 20260508214609 | 55 | 323 | 11.0 | 18.0 | 0.00 | 0.00 | 0.00 | 24 | 974.6 |
| 20260508214059 | 56 | 341 | 10.0 | 18.0 | 0.00 | 0.00 | 0.00 | 24 | 974.5 |
| 20260508213555 | 56 | 355 | 8.0 | 12.0 | 0.00 | 0.00 | 0.00 | 23 | 974.5 |
| 20260508213111 | 56 | 344 | 7.0 | 14.0 | 0.00 | 0.00 | 0.00 | 24 | 974.5 |
| 20260508212558 | 56 | 350 | 5.0 | 15.0 | 0.00 | 0.00 | 0.00 | 24 | 974.5 |
| 20260508212056 | 56 | 349 | 7.0 | 15.0 | 0.00 | 0.00 | 0.00 | 24 | 974.6 |
| 20260508211558 | 56 | 344 | 9.0 | 14.0 | 0.00 | 0.00 | 0.00 | 23 | 974.7 |
| 20260508211054 | 56 | 348 | 7.0 | 16.0 | 0.00 | 0.00 | 0.00 | 24 | 974.7 |
| 20260508210557 | 56 | 21 | 9.0 | 16.0 | 0.00 | 0.00 | 0.00 | 24 | 974.8 |
| 20260508210054 | 56 | 11 | 8.0 | 14.0 | 0.00 | 0.00 | 0.00 | 24 | 974.7 |
| 20260508205553 | 56 | 5 | 8.0 | 14.0 | 0.00 | 0.00 | 0.00 | 25 | 974.7 |
| 20260508205053 | 55 | 304 | 8.0 | 16.0 | 0.00 | 0.00 | 0.00 | 24 | 974.8 |
| 20260508204604 | 56 | 332 | 6.0 | 16.0 | 0.00 | 0.00 | 0.00 | 26 | 974.7 |
| 20260508204054 | 55 | 321 | 9.0 | 16.0 | 0.00 | 0.00 | 0.00 | 23 | 974.7 |
| 20260508203553 | 56 | 311 | 9.0 | 16.0 | 0.00 | 0.00 | 0.00 | 24 | 974.9 |
| 20260508203057 | 55 | 27 | 7.0 | 17.0 | 0.00 | 0.00 | 0.00 | 24 | 974.9 |
| 20260508202553 | 55 | 18 | 6.0 | 17.0 | 0.00 | 0.00 | 0.00 | 24 | 974.8 |
| 20260508202051 | 55 | 340 | 7.0 | 17.0 | 0.00 | 0.00 | 0.00 | 24 | 974.9 |
| 20260508201607 | 56 | 308 | 12.0 | 17.0 | 0.00 | 0.00 | 0.00 | 24 | 974.9 |
| 20260508201053 | 55 | 5 | 9.0 | 16.0 | 0.00 | 0.00 | 0.00 | 24 | 974.8 |
| 20260508200552 | 55 | 297 | 8.0 | 16.0 | 0.00 | 0.00 | 0.00 | 25 | 974.9 |
| 20260508200104 | 55 | 27 | 7.0 | 15.0 | 0.00 | 0.00 | 0.00 | 24 | 974.9 |
| 20260508195550 | 55 | 340 | 9.0 | 15.0 | 0.00 | 0.00 | 0.00 | 25 | 974.9 |
| 20260508195050 | 55 | 311 | 8.0 | 13.0 | 0.00 | 0.00 | 0.00 | 25 | 974.9 |
| 20260508194551 | 55 | 360 | 7.0 | 15.0 | 0.00 | 0.00 | 0.00 | 25 | 975.0 |
| 20260508194049 | 55 | 300 | 5.0 | 17.0 | 0.00 | 0.00 | 0.00 | 24 | 975.0 |
| 20260508193549 | 55 | 343 | 10.0 | 17.0 | 0.00 | 0.00 | 0.00 | 25 | 974.9 |
| 20260508193055 | 55 | 49 | 8.0 | 17.0 | 0.00 | 0.00 | 0.00 | 24 | 975.1 |
| 20260508192549 | 55 | 344 | 4.0 | 17.0 | 0.00 | 0.00 | 0.00 | 26 | 975.4 |
| 20260508192049 | 55 | 346 | 12.0 | 17.0 | 0.00 | 0.00 | 0.00 | 25 | 975.2 |
| 20260508191550 | 55 | 273 | 8.0 | 16.0 | 0.00 | 0.00 | 0.00 | 26 | 975.3 |
| 20260508191048 | 55 | 360 | 6.0 | 16.0 | 0.00 | 0.00 | 0.00 | 26 | 975.3 |
| 20260508190549 | 55 | 320 | 7.0 | 16.0 | 0.00 | 0.00 | 0.00 | 26 | 975.4 |
| 20260508190052 | 54 | 328 | 9.0 | 18.0 | 0.00 | 0.00 | 0.00 | 25 | 975.6 |
| 20260508185547 | 54 | 17 | 7.0 | 18.0 | 0.00 | 0.00 | 0.00 | 25 | 975.7 |
| 20260508185045 | 54 | 290 | 6.0 | 13.0 | 0.00 | 0.00 | 0.00 | 26 | 975.4 |
| 20260508184547 | 54 | 340 | 4.0 | 17.0 | 0.00 | 0.00 | 0.00 | 26 | 975.6 |
| 20260508184047 | 54 | 306 | 9.0 | 16.0 | 0.00 | 0.00 | 0.00 | 25 | 975.5 |
| 20260508183544 | 54 | 15 | 6.0 | 17.0 | 0.00 | 0.00 | 0.00 | 25 | 975.5 |
| 20260508183044 | 54 | 350 | 8.0 | 16.0 | 0.00 | 0.00 | 0.00 | 26 | 975.6 |
| 20260508182544 | 53 | 5 | 6.0 | 16.0 | 0.00 | 0.00 | 0.00 | 25 | 975.6 |
| 20260508182044 | 54 | 330 | 11.0 | 16.0 | 0.00 | 0.00 | 0.00 | 25 | 975.8 |
| 20260508181606 | 53 | 331 | 6.0 | 16.0 | 0.00 | 0.00 | 0.00 | 26 | 975.7 |
| 20260508181043 | 54 | 349 | 11.0 | 16.0 | 0.00 | 0.00 | 0.00 | 25 | 975.8 |
| 20260508180543 | 53 | 17 | 9.0 | 15.0 | 0.00 | 0.00 | 0.00 | 25 | 975.8 |
| 20260508180057 | 53 | 298 | 11.0 | 15.0 | 0.00 | 0.00 | 0.00 | 24 | 975.9 |
| 20260508175543 | 53 | 19 | 8.0 | 16.0 | 0.00 | 0.00 | 0.00 | 25 | 976.0 |
| 20260508175042 | 53 | 350 | 7.0 | 17.0 | 0.00 | 0.00 | 0.00 | 25 | 975.9 |
| 20260508174541 | 53 | 332 | 9.0 | 18.0 | 0.00 | 0.00 | 0.00 | 25 | 976.0 |
| 20260508174039 | 53 | 346 | 10.0 | 18.0 | 0.00 | 0.00 | 0.00 | 25 | 976.1 |
| 20260508173539 | 52 | 9 | 9.0 | 18.0 | 0.00 | 0.00 | 0.00 | 25 | 976.2 |
| 20260508173045 | 52 | 344 | 10.0 | 18.0 | 0.00 | 0.00 | 0.00 | 25 | 976.1 |
| 20260508172537 | 53 | 325 | 11.0 | 17.0 | 0.00 | 0.00 | 0.00 | 24 | 976.1 |
| 20260508172037 | 52 | 295 | 11.0 | 19.0 | 0.00 | 0.00 | 0.00 | 23 | 976.1 |
| 20260508171538 | 52 | 297 | 9.0 | 19.0 | 0.00 | 0.00 | 0.00 | 25 | 976.1 |
| 20260508171034 | 53 | 342 | 8.0 | 16.0 | 0.00 | 0.00 | 0.00 | 25 | 976.2 |
| 20260508170533 | 52 | 12 | 8.0 | 17.0 | 0.00 | 0.00 | 0.00 | 25 | 976.4 |
| 20260508170032 | 52 | 360 | 10.0 | 21.0 | 0.00 | 0.00 | 0.00 | 25 | 976.4 |
| 20260508165531 | 52 | 346 | 11.0 | 21.0 | 0.00 | 0.00 | 0.00 | 25 | 976.4 |
| 20260508165033 | 52 | 355 | 10.0 | 15.0 | 0.00 | 0.00 | 0.00 | 26 | 976.3 |
| 20260508164537 | 52 | 328 | 10.0 | 16.0 | 0.00 | 0.00 | 0.00 | 25 | 976.2 |
| 20260508164027 | 52 | 319 | 11.0 | 16.0 | 0.00 | 0.00 | 0.00 | 25 | 976.2 |
| 20260508163525 | 52 | 318 | 8.0 | 17.0 | 0.00 | 0.00 | 0.00 | 26 | 976.2 |
| 20260508163024 | 52 | 333 | 9.0 | 17.0 | 0.00 | 0.00 | 0.00 | 25 | 976.1 |
| 20260508162523 | 51 | 300 | 11.0 | 17.0 | 0.00 | 0.00 | 0.00 | 27 | 976.1 |
| 20260508162024 | 52 | 313 | 11.0 | 17.0 | 0.00 | 0.00 | 0.00 | 25 | 976.1 |
| 20260508161520 | 52 | 328 | 9.0 | 15.0 | 0.00 | 0.00 | 0.00 | 28 | 976.2 |
| 20260508161019 | 51 | 355 | 9.0 | 15.0 | 0.00 | 0.00 | 0.00 | 27 | 976.3 |
| 20260508160518 | 51 | 294 | 10.0 | 15.0 | 0.00 | 0.00 | 0.00 | 27 | 976.4 |
| 20260508160032 | 51 | 5 | 10.0 | 15.0 | 0.00 | 0.00 | 0.00 | 27 | 976.3 |
| 20260508155515 | 51 | 331 | 9.0 | 14.0 | 0.00 | 0.00 | 0.00 | 29 | 976.3 |
| 20260508155014 | 50 | 355 | 9.0 | 16.0 | 0.00 | 0.00 | 0.00 | 30 | 976.3 |
| 20260508154513 | 50 | 306 | 11.0 | 15.0 | 0.00 | 0.00 | 0.00 | 31 | 976.3 |
| 20260508154015 | 50 | 331 | 5.0 | 13.0 | 0.00 | 0.00 | 0.00 | 31 | 976.2 |
| 20260508153510 | 50 | 360 | 6.0 | 16.0 | 0.00 | 0.00 | 0.00 | 33 | 976.1 |
| 20260508153009 | 50 | 344 | 11.0 | 16.0 | 0.00 | 0.00 | 0.00 | 31 | 976.1 |
| 20260508152507 | 50 | 314 | 7.0 | 15.0 | 0.00 | 0.00 | 0.00 | 33 | 976.0 |
| 20260508152006 | 49 | 326 | 10.0 | 16.0 | 0.00 | 0.00 | 0.00 | 37 | 976.4 |
| 20260508151507 | 49 | 296 | 10.0 | 16.0 | 0.00 | 0.00 | 0.00 | 41 | 976.4 |
| 20260508151006 | 49 | 312 | 9.0 | 15.0 | 0.00 | 0.00 | 0.00 | 39 | 976.3 |
| 20260508150508 | 49 | 279 | 10.0 | 16.0 | 0.00 | 0.00 | 0.00 | 46 | 976.2 |
| 20260508150005 | 49 | 291 | 11.0 | 15.0 | 0.00 | 0.00 | 0.00 | 45 | 976.3 |
| 20260508145507 | 49 | 269 | 8.0 | 15.0 | 0.00 | 0.00 | 0.00 | 46 | 976.2 |
| 20260508145002 | 49 | 323 | 10.0 | 18.0 | 0.00 | 0.00 | 0.00 | 46 | 976.1 |
| 20260508144502 | 49 | 331 | 8.0 | 16.0 | 0.00 | 0.00 | 0.00 | 44 | 976.1 |
| 20260508144003 | 49 | 322 | 9.0 | 15.0 | 0.00 | 0.00 | 0.00 | 44 | 976.1 |
| 20260508143502 | 49 | 301 | 9.0 | 15.0 | 0.00 | 0.00 | 0.00 | 41 | 976.1 |
| 20260508143101 | 49 | 298 | 9.0 | 15.0 | 0.00 | 0.00 | 0.00 | 38 | 976.0 |
| 20260508142559 | 49 | 332 | 8.0 | 13.0 | 0.00 | 0.00 | 0.00 | 37 | 976.0 |
| 20260508142059 | 49 | 296 | 7.0 | 14.0 | 0.00 | 0.00 | 0.00 | 38 | 976.0 |
| 20260508141615 | 49 | 21 | 9.0 | 14.0 | 0.00 | 0.00 | 0.00 | 37 | 976.0 |
| 20260508141058 | 49 | 302 | 9.0 | 14.0 | 0.00 | 0.00 | 0.00 | 37 | 975.9 |
| 20260508140600 | 49 | 329 | 4.0 | 11.0 | 0.00 | 0.00 | 0.00 | 38 | 975.9 |
| 20260508140110 | 48 | 351 | 7.0 | 11.0 | 0.00 | 0.00 | 0.00 | 37 | 975.9 |
| 20260508135559 | 48 | 355 | 4.0 | 9.0 | 0.00 | 0.00 | 0.00 | 35 | 975.9 |
| 20260508135053 | 48 | 355 | 3.0 | 10.0 | 0.00 | 0.00 | 0.00 | 36 | 975.9 |
| 20260508134553 | 47 | 345 | 4.0 | 10.0 | 0.00 | 0.00 | 0.00 | 37 | 975.8 |
| 20260508134051 | 47 | 325 | 3.0 | 8.0 | 0.00 | 0.00 | 0.00 | 38 | 975.7 |
| 20260508133552 | 47 | 35 | 4.0 | 8.0 | 0.00 | 0.00 | 0.00 | 38 | 975.7 |
| 20260508133051 | 46 | 37 | 3.0 | 8.0 | 0.00 | 0.00 | 0.00 | 40 | 975.7 |
| 20260508132547 | 46 | 355 | 2.0 | 7.0 | 0.00 | 0.00 | 0.00 | 40 | 975.6 |
| 20260508132046 | 45 | 9 | 1.0 | 7.0 | 0.00 | 0.00 | 0.00 | 42 | 975.6 |
| 20260508131545 | 44 | 22 | 2.0 | 6.0 | 0.00 | 0.00 | 0.00 | 44 | 975.5 |